When you browse on this site, cookies collect data to enhance your experience and personalize the content and advertising you see.
Visit our Privacy Policy to learn more. By continuing to use the site, you agree to this use of cookies and data.
  • In Romania
  • List of Countries
  • For 7 days
  • Water Temperature
  • Satellite Maps
  • Weather Map
  • Weather Widgets
  • user-avatar
    Login

    Hourly Weather Koluszki

    Today, 19 March, Tuesday

    Time Temperature Precipitation Wind Pressure Humidity
    00:00 +2°C° 0 mm 5 mps 745 mmHg 68%
    01:00 +1°C° 0 mm 5 mps 745 mmHg 71%
    02:00 +1°C° 0 mm 5 mps 746 mmHg 74%
    03:00 0°C° 0 mm 5 mps 746 mmHg 77%
    04:00 0°C° 0 mm 4 mps 746 mmHg 80%
    05:00 0°C° 0 mm 5 mps 747 mmHg 81%
    06:00 0°C° 0 mm 5 mps 747 mmHg 81%
    07:00 0°C° 0 mm 5 mps 748 mmHg 82%
    08:00 +1°C° 0 mm 5 mps 748 mmHg 77%
    09:00 +2°C° 0 mm 5 mps 749 mmHg 72%
    10:00 +3°C° 0 mm 5 mps 749 mmHg 68%
    11:00 +5°C° 0 mm 5 mps 749 mmHg 64%
    12:00 +5°C° 0 mm 5 mps 749 mmHg 61%
    13:00 +6°C° 0 mm 5 mps 750 mmHg 57%
    14:00 +6°C° 0.1 mm 5 mps 750 mmHg 56%
    15:00 +6°C° 0.1 mm 5 mps 750 mmHg 54%
    16:00 +6°C° 0.1 mm 5 mps 750 mmHg 53%
    17:00 +5°C° 0 mm 4 mps 751 mmHg 57%
    18:00 +4°C° 0 mm 3 mps 751 mmHg 62%
    19:00 +3°C° 0 mm 3 mps 752 mmHg 66%
    20:00 +3°C° 0 mm 3 mps 752 mmHg 68%
    21:00 +3°C° 0 mm 2 mps 753 mmHg 70%
    22:00 +3°C° 0 mm 2 mps 753 mmHg 71%
    23:00 +2°C° 0 mm 2 mps 754 mmHg 71%

    Tomorrow, 20 March, Wednesday

    Time Temperature Precipitation Wind Pressure Humidity
    00:00 +2°C° 0 mm 2 mps 754 mmHg 71%
    01:00 +1°C° 0 mm 2 mps 754 mmHg 71%
    02:00 +1°C° 0 mm 2 mps 755 mmHg 69%
    03:00 +1°C° 0 mm 2 mps 755 mmHg 68%
    04:00 +1°C° 0 mm 2 mps 755 mmHg 67%
    05:00 +1°C° 0 mm 2 mps 755 mmHg 67%
    06:00 +1°C° 0 mm 2 mps 756 mmHg 67%
    07:00 +1°C° 0 mm 2 mps 756 mmHg 67%
    08:00 +3°C° 0 mm 2 mps 756 mmHg 58%
    09:00 +3°C° 0 mm 3 mps 757 mmHg 50%
    10:00 +4°C° 0 mm 3 mps 757 mmHg 42%
    11:00 +5°C° 0 mm 3 mps 757 mmHg 40%
    12:00 +6°C° 0 mm 4 mps 757 mmHg 38%
    13:00 +7°C° 0 mm 4 mps 757 mmHg 36%
    14:00 +7°C° 0 mm 4 mps 757 mmHg 37%
    15:00 +7°C° 0 mm 4 mps 757 mmHg 37%
    16:00 +7°C° 0 mm 4 mps 756 mmHg 38%
    17:00 +7°C° 0 mm 3 mps 757 mmHg 44%
    18:00 +5°C° 0 mm 3 mps 757 mmHg 50%
    19:00 +4°C° 0 mm 3 mps 757 mmHg 56%
    20:00 +4°C° 0 mm 3 mps 757 mmHg 59%
    21:00 +3°C° 0 mm 3 mps 757 mmHg 63%
    22:00 +3°C° 0 mm 3 mps 757 mmHg 66%
    23:00 +3°C° 0 mm 3 mps 757 mmHg 65%

    Day after tomorrow, 21 March, Thursday

    Time Temperature Precipitation Wind Pressure Humidity
    00:00 +4°C° 0 mm 4 mps 757 mmHg 63%
    01:00 +4°C° 0 mm 4 mps 757 mmHg 62%
    02:00 +4°C° 0 mm 4 mps 757 mmHg 64%
    03:00 +4°C° 0 mm 4 mps 757 mmHg 67%
    04:00 +4°C° 0 mm 4 mps 757 mmHg 69%
    05:00 +4°C° 0 mm 4 mps 757 mmHg 71%
    06:00 +4°C° 0 mm 3 mps 757 mmHg 74%
    07:00 +4°C° 0 mm 3 mps 757 mmHg 76%
    08:00 +5°C° 0 mm 3 mps 757 mmHg 77%
    09:00 +7°C° 0 mm 3 mps 757 mmHg 77%
    10:00 +7°C° 0 mm 3 mps 757 mmHg 78%
    11:00 +7°C° 0 mm 4 mps 757 mmHg 75%
    12:00 +10°C° 0 mm 4 mps 757 mmHg 73%
    13:00 +11°C° 0 mm 4 mps 757 mmHg 70%
    14:00 +11°C° 0 mm 3 mps 757 mmHg 71%
    15:00 +11°C° 0 mm 3 mps 756 mmHg 72%
    16:00 +10°C° 0 mm 3 mps 756 mmHg 73%
    17:00 +9°C° 0 mm 3 mps 756 mmHg 78%
    18:00 +9°C° 0 mm 2 mps 756 mmHg 82%
    19:00 +8°C° 0 mm 2 mps 756 mmHg 87%
    20:00 +7°C° 0 mm 2 mps 756 mmHg 88%
    21:00 +7°C° 0 mm 2 mps 756 mmHg 89%
    22:00 +7°C° 0 mm 2 mps 756 mmHg 90%
    23:00 +7°C° 0 mm 2 mps 756 mmHg 90%

    22 March, Friday

    Time Temperature Precipitation Wind Pressure Humidity
    00:00 +6°C° 0 mm 2 mps 756 mmHg 91%
    01:00 +5°C° 0 mm 3 mps 756 mmHg 91%
    02:00 +5°C° 0 mm 3 mps 756 mmHg 91%
    03:00 +7°C° 0 mm 3 mps 755 mmHg 91%
    04:00 +7°C° 0 mm 3 mps 755 mmHg 90%
    05:00 +7°C° 0 mm 3 mps 755 mmHg 90%
    06:00 +7°C° 0 mm 3 mps 755 mmHg 89%
    07:00 +7°C° 0 mm 3 mps 755 mmHg 88%
    08:00 +7°C° 0 mm 4 mps 755 mmHg 83%
    09:00 +10°C° 0 mm 4 mps 755 mmHg 79%
    10:00 +11°C° 0 mm 4 mps 755 mmHg 75%
    11:00 +12°C° 0 mm 4 mps 755 mmHg 71%
    12:00 +13°C° 0 mm 4 mps 755 mmHg 67%
    13:00 +13°C° 0 mm 4 mps 754 mmHg 63%
    14:00 +14°C° 0 mm 4 mps 754 mmHg 62%
    15:00 +14°C° 0 mm 4 mps 754 mmHg 62%
    16:00 +14°C° 0 mm 4 mps 753 mmHg 61%
    17:00 +13°C° 0 mm 3 mps 753 mmHg 66%
    18:00 +12°C° 0 mm 3 mps 754 mmHg 71%
    19:00 +10°C° 0 mm 2 mps 754 mmHg 76%
    20:00 +10°C° 0 mm 2 mps 754 mmHg 78%
    21:00 +9°C° 0 mm 2 mps 754 mmHg 80%
    22:00 +9°C° 0 mm 2 mps 754 mmHg 82%
    23:00 +9°C° 0 mm 2 mps 753 mmHg 84%

    23 March, Saturday

    Time Temperature Precipitation Wind Pressure Humidity
    00:00 +8°C° 0 mm 2 mps 753 mmHg 85%
    01:00 +8°C° 0 mm 2 mps 753 mmHg 87%
    02:00 +8°C° 0 mm 2 mps 753 mmHg 87%
    03:00 +7°C° 0 mm 2 mps 753 mmHg 87%
    04:00 +7°C° 0 mm 3 mps 752 mmHg 87%
    05:00 +7°C° 0 mm 3 mps 752 mmHg 85%
    06:00 +8°C° 0 mm 3 mps 752 mmHg 82%
    07:00 +8°C° 0 mm 3 mps 752 mmHg 79%
    08:00 +10°C° 0 mm 4 mps 752 mmHg 71%
    09:00 +12°C° 0 mm 4 mps 752 mmHg 63%
    10:00 +14°C° 0 mm 4 mps 752 mmHg 55%
    11:00 +15°C° 0 mm 4 mps 752 mmHg 52%
    12:00 +17°C° 0 mm 4 mps 751 mmHg 48%
    13:00 +17°C° 0 mm 5 mps 751 mmHg 44%
    14:00 +17°C° 0 mm 5 mps 751 mmHg 45%
    15:00 +17°C° 0 mm 5 mps 750 mmHg 46%
    16:00 +18°C° 0 mm 4 mps 750 mmHg 46%
    17:00 +17°C° 0 mm 4 mps 750 mmHg 53%
    18:00 +14°C° 0 mm 3 mps 750 mmHg 59%
    19:00 +14°C° 0 mm 2 mps 750 mmHg 65%
    20:00 +13°C° 0 mm 2 mps 750 mmHg 68%
    21:00 +12°C° 0 mm 2 mps 750 mmHg 71%
    22:00 +12°C° 0 mm 2 mps 750 mmHg 74%
    23:00 +10°C° 0 mm 2 mps 750 mmHg 76%

    24 March, Sunday

    Time Temperature Precipitation Wind Pressure Humidity
    00:00 +11°C° 0 mm 1 mps 750 mmHg 79%
    01:00 +10°C° 0 mm 1 mps 750 mmHg 82%
    02:00 +10°C° 0 mm 1 mps 749 mmHg 83%
    03:00 +10°C° 0 mm 1 mps 749 mmHg 83%
    04:00 +8°C° 0 mm 2 mps 748 mmHg 84%
    05:00 +9°C° 0 mm 2 mps 748 mmHg 81%
    06:00 +9°C° 0 mm 2 mps 748 mmHg 79%
    07:00 +9°C° 0 mm 2 mps 748 mmHg 76%
    08:00 +11°C° 0 mm 3 mps 748 mmHg 69%
    09:00 +13°C° 0 mm 3 mps 747 mmHg 62%
    10:00 +16°C° 0 mm 3 mps 747 mmHg 55%
    11:00 +17°C° 0 mm 4 mps 746 mmHg 52%
    12:00 +18°C° 0 mm 4 mps 746 mmHg 49%
    13:00 +19°C° 0 mm 5 mps 745 mmHg 46%
    14:00 +17°C° 0 mm 5 mps 745 mmHg 47%
    15:00 +17°C° 0 mm 5 mps 744 mmHg 48%
    16:00 +17°C° 0 mm 6 mps 744 mmHg 50%
    17:00 +15°C° 0.1 mm 5 mps 744 mmHg 57%
    18:00 +14°C° 0.1 mm 5 mps 744 mmHg 64%
    19:00 +12°C° 0.1 mm 4 mps 744 mmHg 72%
    20:00 +11°C° 0 mm 4 mps 744 mmHg 74%
    21:00 +10°C° 0 mm 4 mps 745 mmHg 76%
    22:00 +8°C° 0 mm 4 mps 745 mmHg 79%
    23:00 +7°C° 0 mm 5 mps 745 mmHg 76%
    Show more